CW8212 Weather Reports


time (UTC)temp
F
wind
direction
speed
knots
gust
knots
rain 1hr
in
rain 24hr
in
rain mn
in
humidity
%
barometer
mb
20260507030045 63 286 0.9 5.2 0.04 0.10 0.10 89 1009.3
20260507024554 63 281 0.0 3.5 0.05 0.10 0.10 89 1009.0
20260507023045 64 325 0.9 8.7 0.05 0.10 0.10 88 1009.3
20260507021545 65 294 0.0 1.7 0.05 0.10 0.10 88 1009.3
20260507014552 65 315 0.9 3.5 0.00 0.05 0.05 86 1009.3
20260507013047 65 223 0.0 1.7 0.00 0.05 0.05 86 1009.0
20260507011541 65 229 0.0 1.7 0.00 0.05 0.05 86 1008.9
20260507010040 65 221 0.0 1.7 0.00 0.05 0.05 85 1008.7
20260507004543 66 211 0.0 2.6 0.00 0.05 0.05 85 1008.9
20260507003039 66 229 0.0 2.6 0.00 0.05 0.05 84 1008.5
20260507001539 66 233 0.0 2.6 0.00 0.05 0.05 84 1008.2
20260507000038 66 181 0.0 2.6 0.00 0.05 0.05 84 1008.3
20260506234540 66 175 0.0 2.6 0.00 0.05 0.05 83 1008.1
20260506233038 66 221 0.0 4.3 0.00 0.05 0.05 83 1008.2
20260506231548 66 221 0.9 2.6 0.00 0.05 0.05 83 1007.9
20260506230050 66 244 0.9 4.3 0.00 0.05 0.05 84 1008.0
20260506224538 66 232 0.0 4.3 0.00 0.05 0.05 84 1007.8
20260506223048 66 237 0.0 2.6 0.00 0.05 0.05 84 1008.0
20260506221535 67 257 0.0 5.2 0.00 0.05 0.05 84 1007.8
20260506220036 67 273 0.0 3.5 0.00 0.05 0.05 84 1007.9
20260506214534 66 202 0.0 4.3 0.00 0.05 0.05 85 1007.7
20260506213042 66 167 0.9 5.2 0.00 0.05 0.05 86 1007.7
20260506211546 66 285 0.0 3.5 0.00 0.05 0.05 87 1007.6
20260506210035 65 197 0.9 4.3 0.00 0.05 0.05 87 1007.4
20260506204536 65 338 0.9 4.3 0.00 0.05 0.05 88 1007.4
20260506203033 64 329 0.9 4.3 0.00 0.05 0.05 89 1007.3
20260506201535 64 153 0.0 3.5 0.00 0.05 0.05 90 1007.4
20260506200030 63 174 1.7 8.7 0.00 0.05 0.05 91 1007.5
20260506194531 63 271 1.7 4.3 0.00 0.05 0.05 91 1007.5
20260506193027 62 245 0.0 3.5 0.00 0.05 0.05 91 1007.7
20260506191526 62 142 1.7 6.1 0.00 0.05 0.05 92 1008.0
20260506190023 61 229 1.7 7.0 0.00 0.05 0.05 92 1008.1
20260506184523 61 218 0.9 4.3 0.00 0.05 0.05 92 1008.2
20260506183030 61 265 1.7 7.8 0.00 0.05 0.05 92 1008.2
20260506181521 61 256 1.7 5.2 0.00 0.05 0.05 92 1008.4
20260506180020 61 243 0.9 7.8 0.00 0.05 0.05 92 1008.3
20260506174519 61 223 0.9 3.5 0.00 0.05 0.05 92 1008.4
20260506173019 61 211 0.0 3.5 0.00 0.05 0.05 92 1008.5
20260506171618 62 231 1.7 4.3 0.01 0.05 0.05 91 1008.6
20260506170019 62 227 1.7 5.2 0.03 0.05 0.05 91 1008.6
20260506164516 62 261 1.7 8.7 0.04 0.05 0.05 91 1008.5
20260506163014 62 193 0.0 8.7 0.04 0.05 0.05 90 1008.7
20260506161511 62 227 1.7 4.3 0.04 0.04 0.04 89 1009.0
20260506160009 62 212 0.9 4.3 0.02 0.02 0.02 87 1009.6
20260506154506 62 221 0.9 3.5 0.01 0.01 0.01 86 1010.0
20260506153004 63 217 0.9 2.6 0.01 0.01 0.01 84 1009.9
20260506151505 63 254 0.9 5.2 0.00 0.00 0.00 83 1009.8
20260506150004 64 214 0.0 3.5 0.00 0.00 0.00 81 1009.8
20260506144502 65 203 0.9 4.3 0.00 0.00 0.00 79 1009.5
20260506143001 65 224 2.6 7.0 0.00 0.00 0.00 76 1009.9
20260506141501 66 154 1.7 7.0 0.00 0.00 0.00 74 1009.9
20260506140106 66 236 0.9 4.3 0.00 0.00 0.00 74 1009.7
20260506134559 66 211 1.7 6.1 0.00 0.00 0.00 75 1009.6
20260506133058 65 227 0.9 5.2 0.00 0.00 0.00 75 1009.7
20260506131559 65 110 2.6 7.0 0.00 0.00 0.00 75 1009.6
20260506124557 65 220 2.6 7.8 0.00 0.00 0.00 77 1009.8
20260506123057 65 129 1.7 6.1 0.00 0.00 0.00 78 1009.7
20260506121558 64 105 1.7 7.8 0.00 0.00 0.00 79 1009.6
20260506120055 64 223 1.7 6.1 0.00 0.00 0.00 80 1009.4
20260506114555 63 219 0.0 4.3 0.00 0.00 0.00 80 1009.4
20260506113054 63 219 0.9 4.3 0.00 0.00 0.00 80 1009.4
20260506111552 63 237 0.9 7.8 0.00 0.00 0.00 81 1009.4
20260506110051 63 228 0.9 7.0 0.00 0.00 0.00 81 1009.3
20260506104549 63 214 0.9 4.3 0.00 0.00 0.00 81 1009.3
20260506103053 63 222 0.9 4.3 0.00 0.00 0.00 81 1009.3
20260506101546 63 161 1.7 5.2 0.00 0.00 0.00 80 1009.3
20260506100043 63 227 0.9 2.6 0.00 0.00 0.00 80 1009.3
20260506094543 63 221 0.9 3.5 0.00 0.00 0.00 80 1009.3
20260506093040 64 237 0.9 9.6 0.00 0.00 0.00 79 1009.4
20260506091539 64 231 0.9 4.3 0.00 0.00 0.00 79 1009.3
20260506090046 64 88 0.9 3.5 0.00 0.00 0.00 79 1009.4
20260506084543 65 213 0.0 3.5 0.00 0.00 0.00 78 1009.6
20260506083035 65 191 0.9 2.6 0.00 0.00 0.00 78 1009.5
20260506081538 65 203 0.9 4.3 0.00 0.00 0.00 77 1009.5
20260506073029 65 144 0.9 3.5 0.00 0.00 0.00 76 1009.7
20260506071528 66 178 0.9 4.3 0.00 0.00 0.00 75 1009.8
20260506061542 66 217 0.9 6.1 0.00 0.00 0.00 74 1010.0
20260506044520 67 222 0.9 3.5 0.00 0.00 0.00 69 1010.7
20260506043028 67 216 0.9 3.5 0.00 0.00 0.00 68 1010.7
20260506041512 67 171 0.9 2.6 0.00 0.00 0.00 68 1010.6
20260506040010 67 190 0.9 3.5 0.00 0.00 0.00 67 1010.8
20260506034509 67 215 0.0 3.5 0.00 0.00 0.00 66 1010.6
20260506033015 68 227 0.9 3.5 0.00 0.00 0.00 66 1010.5
20260506031509 68 215 0.9 2.6 0.00 0.00 0.00 64 1010.5